Gwinn, MI

7:05 AM EDT on June 28, 2017 (GMT -0400)
Sawyer International

Weather History for KSAW - March, 2013

Change the Weather History Date:

Saturday, March 2, 2013

  Actual Average (KESC) Record (KESC)
Temperature  
Mean Temperature 20 °F -  
Max Temperature 32 °F 32 °F 52 °F (1964)
Min Temperature 7 °F 14 °F -19 °F (1962)
Degree Days  
Heating Degree Days 46    
Moisture  
Dew Point 10 °F    
Average Humidity 77    
Maximum Humidity 86    
Minimum Humidity 67    
Precipitation  
Precipitation 0.00 in - - ()
Sea Level Pressure  
Sea Level Pressure 30.17 in    
Wind  
Wind Speed 11 mph (North)    
Max Wind Speed 17 mph    
Max Gust Speed 21 mph    
Visibility 8 miles    
Events Snow    
Averages and records for this station are not official NWS values.
T = Trace of Precipitation, MM = Missing Value Source: NWS Daily Summary

Daily Weather History Graph

Daily Weather History Graph

Search for Another Location

Airport or City:

Trip Planner

Search our weather history database for the weather conditions in past years. The results will help you decide how hot, cold, wet, or windy it might be!

Date:

Astronomy

Mar. 02, 2013 Rise Set
Actual Time 7:26 AM EST 6:37 PM EST
Civil Twilight 6:56 AM EST 7:07 PM EST
Nautical Twilight 6:21 AM EST 7:42 PM EST
Astronomical Twilight 5:46 AM EST 8:17 PM EST
Moon No Moon Rise 9:34 AM EST (3/2)
Length of Visible Light 12h 11m
Length of Day
11h 11m
Waning Gibbous, 74% of the Moon is Illuminated
Mar 2
Waning Gibbous
Mar 4
Last Quarter
Mar 11
New
Mar 19
First Quarter
Mar 27
Full

Hourly Weather History & Observations

Time (EST) Temp. Windchill Dew Point Humidity Pressure Visibility Wind Dir Wind Speed Gust Speed Precip Events Conditions
12:16 AM 19.4 °F 7.2 °F 10.4 °F 68% 30.21 in 10.0 mi NNE 11.5 mph - N/A   Scattered Clouds
12:37 AM 19.2 °F 7.0 °F 9.9 °F 67% 30.21 in 10.0 mi NNE 11.5 mph - N/A   Clear
12:57 AM 18.3 °F 6.6 °F 9.9 °F 70% 30.21 in 10.0 mi NNE 10.4 mph - N/A   Scattered Clouds
1:16 AM 18.3 °F 6.6 °F 9.7 °F 69% 30.21 in 10.0 mi NNE 10.4 mph - N/A   Scattered Clouds
1:37 AM 17.2 °F 5.2 °F 9.3 °F 71% 30.21 in 10.0 mi NNE 10.4 mph - N/A   Clear
1:56 AM 17.1 °F 5.8 °F 9.5 °F 72% 30.21 in 10.0 mi NNE 9.2 mph - N/A   Scattered Clouds
2:17 AM 17.6 °F 7.3 °F 10.4 °F 73% 30.21 in 10.0 mi NNE 8.1 mph - N/A   Mostly Cloudy
2:37 AM 17.4 °F 7.1 °F 10.4 °F 74% 30.20 in 10.0 mi North 8.1 mph - N/A   Overcast
2:56 AM 17.6 °F 6.4 °F 10.9 °F 75% 30.20 in 10.0 mi NNE 9.2 mph - N/A   Overcast
3:17 AM 18.5 °F 7.5 °F 12.0 °F 76% 30.20 in 10.0 mi NNE 9.2 mph - N/A   Overcast
3:37 AM 18.5 °F 6.8 °F 12.6 °F 78% 30.19 in 5.0 mi NNE 10.4 mph - N/A Snow Light Snow
3:56 AM 18.7 °F 6.3 °F 13.1 °F 79% 30.19 in 4.0 mi NNE 11.5 mph - N/A Snow Light Snow
4:17 AM 18.7 °F 6.3 °F 13.5 °F 80% 30.19 in 4.0 mi NNE 11.5 mph - N/A Snow Light Snow
4:37 AM 18.7 °F 7.0 °F 13.6 °F 81% 30.19 in 3.0 mi NNE 10.4 mph 16.1 mph N/A Snow Light Snow
4:56 AM 18.5 °F 6.1 °F 13.8 °F 82% 30.19 in 3.0 mi NNE 11.5 mph - N/A Snow Light Snow
5:17 AM 18.3 °F 6.6 °F 13.8 °F 83% 30.19 in 4.0 mi NNE 10.4 mph - N/A Snow Light Snow
5:36 AM 18.3 °F 6.6 °F 13.6 °F 82% 30.19 in 4.0 mi North 10.4 mph - N/A Snow Light Snow
5:56 AM 18.3 °F 5.9 °F 13.6 °F 82% 30.19 in 4.0 mi North 11.5 mph - N/A Snow Light Snow
6:50 AM 17.6 °F 5.0 °F 14.0 °F 86% 30.20 in 7.0 mi NNE 11.5 mph - N/A Snow Light Snow
7:50 AM 17.6 °F 3.7 °F 12.2 °F 79% 30.19 in 7.0 mi North 13.8 mph - N/A Snow Light Snow
8:50 AM 19.4 °F 5.5 °F 14.0 °F 80% 30.20 in 5.0 mi NNE 15.0 mph - N/A Snow Light Snow
9:50 AM 19.4 °F 6.6 °F 14.0 °F 80% 30.19 in 3.0 mi NNE 12.7 mph 19.6 mph N/A Snow Light Snow
10:50 AM 19.4 °F 7.9 °F 14.0 °F 80% 30.19 in 3.0 mi North 10.4 mph - N/A Snow Light Snow
12:46 PM 19.4 °F 5.5 °F 14.0 °F 80% 30.19 in 2.5 mi North 15.0 mph - N/A Snow Light Snow
1:40 PM 19.4 °F 7.2 °F 12.2 °F 74% 30.18 in 5.0 mi North 11.5 mph - N/A Snow Light Snow
1:54 PM 19.4 °F 5.0 °F 12.2 °F 74% 30.17 in 5.0 mi North 16.1 mph - N/A Snow Light Snow
2:50 PM 19.4 °F 6.6 °F 10.4 °F 68% 30.17 in 10.0 mi North 12.7 mph - N/A   Mostly Cloudy
3:50 PM 19.4 °F 4.5 °F 10.4 °F 68% 30.17 in 10.0 mi North 17.3 mph 20.7 mph N/A   Scattered Clouds
4:50 PM 17.6 °F 3.2 °F 10.4 °F 73% 30.16 in 10.0 mi North 15.0 mph - N/A   Partly Cloudy
5:55 PM 15.8 °F 2.7 °F 8.6 °F 73% 30.16 in 10.0 mi North 11.5 mph - N/A   Clear
6:50 PM 15.8 °F 5.1 °F 8.6 °F 73% 30.16 in 10.0 mi North 8.1 mph - N/A   Clear
7:45 PM 32.0 °F 25.6 °F 23.0 °F 69% 29.74 in 10.0 mi NW 6.9 mph - N/A   Overcast
7:55 PM 12.2 °F -0.2 °F 5.0 °F 73% 30.15 in 10.0 mi NNW 9.2 mph - N/A   Clear
8:50 PM 8.6 °F -1.3 °F 5.0 °F 85% 30.14 in 10.0 mi NNW 5.8 mph - N/A   Clear
9:50 PM 8.6 °F -1.3 °F 5.0 °F 85% 30.14 in 10.0 mi NNW 5.8 mph - N/A   Clear
10:17 PM 7.9 °F -5.5 °F 4.1 °F 85% 30.13 in 10.0 mi NNW 9.2 mph - N/A   Clear
10:36 PM 8.1 °F -5.3 °F 3.7 °F 83% 30.13 in 10.0 mi NNW 9.2 mph - N/A   Clear
10:57 PM 7.2 °F -7.3 °F 3.2 °F 84% 30.12 in 10.0 mi NNW 10.4 mph - N/A   Clear
11:17 PM 7.7 °F -5.8 °F 3.4 °F 83% 30.11 in 10.0 mi NW 9.2 mph - N/A   Clear
11:36 PM 7.7 °F -6.6 °F 3.7 °F 84% 30.11 in 10.0 mi NW 10.4 mph - N/A   Clear
11:57 PM 7.5 °F -6.9 °F 3.6 °F 84% 30.10 in 10.0 mi NW 10.4 mph - N/A   Clear